EW0395 Weather Reports


Display with metric or nautical units.
time (UTC)temp
F
wind
direction
speed
MPH
gust
MPH
rain 1hr
in
rain 24hr
in
rain mn
in
humidity
%
barometer
mb
20260905071536 54 0 0.0 0.0 0.00 0.00 0.00 97 1010.9
20260905070041 54 0 0.0 0.0 0.00 0.00 0.00 97 1011.2
20260905064535 55 0 0.0 0.0 0.00 0.00 0.00 97 1011.3
20260905063038 55 0 0.0 0.0 0.00 0.00 0.00 97 1011.4
20260905061557 56 0 0.0 0.0 0.00 0.00 0.00 97 1011.6
20260905060041 56 0 0.0 0.0 0.00 0.00 0.00 97 1011.6
20260905054538 56 0 0.0 0.0 0.00 0.00 0.00 97 1011.6
20260905053036 56 0 0.0 0.0 0.00 0.00 0.00 97 1011.5
20260905051540 56 0 0.0 0.0 0.00 0.00 0.00 97 1011.6
20260905050041 56 0 0.0 0.0 0.00 0.00 0.00 96 1011.8
20260905044538 56 0 0.0 0.0 0.00 0.00 0.00 96 1011.7
20260905043040 56 0 0.0 0.0 0.00 0.00 0.00 95 1011.7
20260905041540 57 0 0.0 0.0 0.00 0.00 0.00 94 1011.8
20260905040039 58 0 0.0 0.0 0.00 0.00 0.00 94 1011.6
20260905034552 58 0 0.0 0.0 0.00 0.00 0.00 93 1011.7
20260905033036 58 0 0.0 0.0 0.00 0.00 0.00 94 1011.7
20260905031541 59 0 0.0 0.0 0.00 0.00 0.00 93 1011.5
20260905030041 59 0 0.0 0.0 0.00 0.00 0.00 92 1011.5
20260905024536 60 0 0.0 0.0 0.00 0.00 0.00 91 1011.6
20260905023041 60 0 0.0 0.0 0.00 0.00 0.00 92 1011.9
20260905021546 60 0 0.0 0.0 0.00 0.00 0.00 92 1011.9
20260905020042 59 0 0.0 0.0 0.00 0.00 0.00 93 1011.9
20260905014539 59 0 0.0 0.0 0.00 0.00 0.00 93 1012.0
20260905013041 59 0 0.0 0.0 0.00 0.00 0.00 93 1012.3
20260905011543 59 0 0.0 0.0 0.00 0.00 0.00 92 1012.1
20260905010038 60 0 0.0 0.0 0.00 0.00 0.00 91 1012.0
20260905004546 60 0 0.0 0.0 0.00 0.00 0.00 90 1012.1
20260905003041 61 0 0.0 0.0 0.00 0.00 0.00 89 1012.2
20260905001552 62 0 0.0 0.0 0.00 0.00 0.00 87 1012.0
20260905000038 63 0 0.0 0.0 0.00 0.00 0.00 85 1011.9
20260904234540 63 0 0.0 0.0 0.00 0.00 0.00 83 1011.7
20260904233044 64 0 0.0 0.0 0.00 0.00 0.00 81 1011.7
20260904231551 65 0 0.0 0.0 0.00 0.00 0.00 80 1011.6
20260904230043 66 0 0.0 0.0 0.00 0.00 0.00 80 1011.7
20260904224547 67 0 0.0 0.0 0.00 0.00 0.00 77 1011.6
20260904223055 68 0 0.0 0.0 0.00 0.00 0.00 76 1011.5
20260904221542 69 0 0.0 0.0 0.00 0.00 0.00 75 1011.5
20260904220040 69 0 0.0 0.0 0.00 0.00 0.00 73 1011.5
20260904214541 71 0 0.0 0.0 0.00 0.00 0.00 75 1011.4
20260904213042 71 0 0.0 0.0 0.00 0.00 0.00 69 1011.5
20260904211541 71 0 0.0 0.0 0.00 0.00 0.00 72 1011.5
20260904210046 71 0 0.0 0.0 0.00 0.00 0.00 70 1011.3
20260904204543 71 0 0.0 0.0 0.00 0.00 0.00 69 1011.2
20260904203040 71 0 0.0 0.0 0.00 0.00 0.00 72 1011.2
20260904201536 72 0 0.0 0.0 0.00 0.00 0.00 68 1011.3
20260904200041 73 0 0.0 0.0 0.00 0.00 0.00 66 1011.2
20260904194537 73 0 0.0 0.0 0.00 0.00 0.00 67 1011.3
20260904193035 74 0 0.0 0.0 0.00 0.00 0.00 67 1011.2
20260904191550 75 0 0.0 0.0 0.00 0.00 0.00 62 1011.4
20260904190041 74 0 0.0 0.0 0.00 0.00 0.00 62 1011.1
20260904184538 75 0 0.0 0.0 0.00 0.00 0.00 61 1011.3
20260904183050 75 0 0.0 0.0 0.00 0.00 0.00 67 1011.3
20260904181542 76 0 0.0 0.0 0.00 0.00 0.00 61 1011.6
20260904180039 75 0 0.0 0.0 0.00 0.00 0.00 66 1011.6
20260904174542 77 0 0.0 0.0 0.00 0.00 0.00 60 1011.3
20260904173050 77 0 1.0 6.0 0.00 0.00 0.00 67 1011.4
20260904171538 74 275 1.0 4.0 0.00 0.00 0.00 67 1011.7
20260904170042 75 174 0.0 3.0 0.00 0.00 0.00 66 1011.6
20260904164537 75 0 0.0 3.0 0.00 0.00 0.00 64 1011.8
20260904163048 76 0 1.0 3.0 0.00 0.00 0.00 63 1012.0
20260904161536 76 157 0.0 4.0 0.00 0.00 0.00 67 1012.1
20260904160042 76 208 0.0 3.0 0.00 0.00 0.00 68 1012.2
20260904154536 75 269 0.0 5.0 0.00 0.00 0.00 69 1012.1
20260904153040 75 0 0.0 2.0 0.00 0.00 0.00 73 1012.3
20260904151543 74 0 0.0 2.0 0.00 0.00 0.00 72 1012.3
20260904150041 74 0 0.0 0.0 0.00 0.00 0.00 77 1012.4
20260904144556 74 0 0.0 3.0 0.00 0.00 0.00 76 1012.2
20260904143054 74 0 0.0 1.0 0.00 0.00 0.00 81 1012.3
20260904141540 73 0 0.0 1.0 0.00 0.00 0.00 80 1012.4
20260904140041 72 0 0.0 1.0 0.00 0.00 0.00 83 1012.5
20260904134541 71 267 0.0 1.0 0.00 0.00 0.00 81 1012.3
20260904133038 71 0 0.0 1.0 0.00 0.00 0.00 86 1012.4
20260904131540 70 0 0.0 1.0 0.00 0.00 0.00 84 1012.4
20260904130041 70 0 0.0 0.0 0.00 0.00 0.00 86 1012.5
20260904124539 70 0 0.0 1.0 0.00 0.00 0.00 89 1012.5
20260904123038 66 0 0.0 0.0 0.00 0.00 0.00 95 1012.4
20260904121541 62 0 0.0 0.0 0.00 0.00 0.00 99 1012.4
20260904120043 59 0 0.0 0.0 0.00 0.00 0.00 100 1012.3
20260904114540 57 0 0.0 0.0 0.00 0.00 0.00 100 1012.2
20260904113038 56 0 0.0 0.0 0.00 0.00 0.00 100 1012.1
20260904111542 55 0 0.0 0.0 0.00 0.00 0.00 100 1012.0
20260904110039 55 0 0.0 0.0 0.00 0.00 0.00 100 1011.9
20260904104541 55 0 0.0 0.0 0.00 0.00 0.00 100 1011.9
20260904103035 55 0 0.0 0.0 0.00 0.00 0.00 99 1011.9
20260904101541 56 0 0.0 0.0 0.00 0.00 0.00 99 1011.9
20260904100042 56 0 0.0 0.0 0.00 0.00 0.00 100 1011.9
20260904094539 56 0 0.0 0.0 0.00 0.00 0.00 100 1011.7
20260904093041 56 0 0.0 0.0 0.00 0.00 0.00 100 1011.6
20260904091550 56 0 0.0 0.0 0.00 0.00 0.00 99 1011.8
20260904090038 56 0 0.0 0.0 0.00 0.00 0.00 99 1011.7
20260904084538 56 0 0.0 0.0 0.00 0.00 0.00 99 1011.8
20260904083041 56 0 0.0 0.0 0.00 0.00 0.00 99 1011.7
20260904081539 56 0 0.0 0.0 0.00 0.00 0.00 99 1011.7
20260904080039 57 0 0.0 0.0 0.00 0.00 0.00 99 1011.5
20260904074557 57 0 0.0 0.0 0.00 0.00 0.00 99 1011.6
20260904073040 57 0 0.0 0.0 0.00 0.00 0.00 99 1011.8
20260904071600 57 0 0.0 0.0 0.00 0.00 0.00 99 1011.9